Location: Unspecified
(42.9300°N, 71.1866°W)
Time: 15:12:25
(UTC-05:00)

Okean 3 - Visible Passes

Search period start: 28 January 2015 00:00
Search period end: 07 February 2015 00:00
Orbit: 582 x 606 km, 82.5° (Epoch: 27 January)

Date Brightness Start Highest point End Pass type
(mag) Time Alt. Az. Time Alt. Az. Time Alt. Az.
28 Jan 3.5 18:39:09 10° N 18:43:25 55° E 18:43:29 55° E visible
28 Jan 6.5 20:18:17 10° WNW 20:20:20 13° W 20:20:21 13° W visible
29 Jan 3.3 18:48:44 10° N 18:53:06 86° E 18:57:23 10° S visible
30 Jan 5.3 17:23:01 10° NE 17:24:49 13° ENE 17:26:48 10° E visible
30 Jan 4.0 18:58:26 10° NNW 19:02:42 60° W 19:06:55 10° S visible
31 Jan 4.9 17:31:41 10° NNE 17:34:41 19° ENE 17:37:48 10° ESE visible
31 Jan 4.9 19:08:15 10° NNW 19:12:17 38° W 19:16:14 10° SSW visible
01 Feb 4.4 17:40:49 10° NNE 17:44:31 27° ENE 17:48:13 10° SE visible
01 Feb 5.7 19:18:15 10° NNW 19:21:50 25° W 19:25:17 10° SW visible
02 Feb 6.6 06:10:21 10° ESE 06:12:49 15° E 06:15:27 10° NE visible
02 Feb 3.9 17:50:10 10° N 17:54:16 41° ENE 17:58:20 10° SSE visible
02 Feb 6.4 19:28:31 10° NW 19:31:20 17° W 19:33:58 10° SW visible
03 Feb 6.3 06:18:56 10° SE 06:22:19 23° E 06:25:47 10° NE visible
03 Feb 3.4 17:59:40 10° N 18:03:58 65° E 18:08:12 10° SSE visible
03 Feb 7.0 19:39:41 10° WNW 19:40:48 11° W 19:41:40 10° W visible
04 Feb 3.6 18:09:17 10° N 18:13:36 80° W 18:17:51 10° S visible
05 Feb 4.5 18:19:00 10° NNW 18:23:12 50° W 18:27:18 10° SSW visible
06 Feb 5.4 18:28:53 10° NNW 18:32:44 32° W 18:36:30 10° SSW visible
